Theta_e
329 328 324 324 324 322 321 317 318 316 311 307 305 303 302 300 303 300 296 296 296 295 296 296 296 296 296 295 294 294 293 293 293 292 292 291 290 289 288 287 286 285 284
328 327 324 323 321 321 318 316 315 310 306 302 302 302 300 302 301 298 297 298 297 297 297 296 296 296 295 295 294 294 293 292 292 292 292 291 290 289 288 287 286 285 284
327 324 322 321 319 316 313 310 308 305 303 303 302 301 302 298 299 298 299 297 298 297 296 296 296 296 295 295 294 293 292 292 291 292 291 290 289 289 288 287 286 284 284
320 319 317 314 313 312 310 308 307 305 303 301 301 302 300 300 299 298 297 297 297 296 296 296 296 295 295 294 294 293 292 291 291 291 290 289 289 288 288 286 286 284 284
314 311 309 308 307 306 305 304 303 302 301 301 301 299 298 297 297 297 297 297 297 297 296 296 295 295 294 293 293 292 291 291 291 290 290 289 289 288 288 287 285 284 284
311 307 305 304 303 302 302 302 302 300 299 299 298 298 298 297 297 296 296 297 296 296 296 295 295 294 293 292 292 291 290 290 290 289 289 289 288 288 287 286 285 284 285
308 306 305 305 304 303 301 298 297 297 297 298 297 297 297 298 297 297 295 293 295 295 295 295 294 294 293 292 292 291 289 288 287 288 288 289 288 287 286 285 284 284 284
305 304 302 301 299 299 299 298 298 297 297 297 298 297 297 297 295 293 292 292 293 293 293 293 293 293 293 293 292 291 291 290 288 287 287 287 286 286 285 284 283 283 283
302 301 301 301 300 299 299 298 298 297 298 296 296 295 295 295 293 292 291 291 292 292 293 293 292 292 292 292 292 291 291 290 289 287 286 285 284 284 283 282 282 283 284
302 301 301 301 300 299 298 296 297 296 295 294 293 293 292 292 292 290 289 290 291 291 291 291 292 292 292 291 291 290 290 290 289 288 286 284 283 283 282 281 282 283 283
300 299 298 297 297 296 295 294 293 293 292 293 292 292 292 292 291 290 288 288 289 289 290 290 291 291 291 291 290 289 290 289 288 288 287 286 285 284 283 282 282 282 283
297 294 294 293 292 292 293 293 292 292 292 292 290 289 289 288 287 286 285 285 285 286 286 287 288 289 289 289 290 288 288 288 288 288 286 285 285 284 284 283 283 283 282
294 293 292 291 291 290 291 290 289 288 287 287 287 287 286 286 285 284 284 282 282 283 284 284 285 286 286 287 287 287 287 287 287 287 287 286 285 285 284 284 283 282 282
292 291 290 287 288 286 286 285 286 286 285 285 285 285 284 283 283 282 280 281 281 281 283 284 285 283 284 285 286 287 288 287 287 287 287 286 286 285 284 283 283 282 282
288 287 286 285 285 285 284 283 283 283 281 282 283 282 281 281 280 277 278 279 279 279 281 283 284 285 286 286 287 287 287 287 286 286 287 286 286 285 284 283 283 282 282
285 284 283 284 283 283 283 283 281 279 279 280 279 278 278 277 276 276 277 277 278 279 282 285 285 285 286 286 287 288 287 286 286 286 286 286 285 285 284 284 283 282 282
283 282 282 282 282 282 282 282 282 281 279 279 277 276 275 275 274 275 275 275 278 278 280 281 281 281 286 287 287 288 287 287 286 286 286 285 285 285 284 284 283 282 282
280 279 281 281 280 280 280 280 280 280 280 279 278 275 274 273 273 274 274 276 277 277 277 278 278 279 280 282 287 287 287 287 286 285 285 285 284 284 284 283 282 282 282
280 279 279 279 278 277 278 278 278 278 277 277 277 276 274 272 273 274 274 275 275 275 275 275 276 275 277 278 280 285 285 286 285 285 284 284 284 284 283 283 282 282 281
278 275 276 277 277 276 276 276 276 276 276 275 275 274 272 271 274 274 273 274 273 273 273 273 273 274 273 275 277 279 281 285 285 284 284 284 284 283 283 283 282 282 281
277 276 273 275 275 274 274 274 274 274 274 273 273 273 268 269 272 272 272 272 272 271 271 271 272 272 272 272 274 275 277 279 284 284 284 284 284 283 283 283 282 282 281
274 273 274 273 273 273 271 272 272 272 272 272 272 271 269 271 271 271 271 270 270 270 269 270 270 270 271 270 270 272 274 276 279 281 283 283 283 283 282 282 282 282 281
272 272 272 271 271 270 271 271 271 270 270 270 270 270 269 269 269 269 269 269 269 268 268 268 268 268 269 269 268 269 271 273 275 274 276 282 283 283 282 282 282 281 281
271 271 270 270 270 269 270 269 269 268 268 268 268 268 268 268 268 268 267 267 267 267 267 267 266 267 268 268 268 268 269 271 270 271 272 277 282 282 282 282 282 281 281
270 270 270 269 269 269 268 268 268 267 267 267 267 267 267 267 267 267 266 266 265 266 266 265 265 266 266 266 266 266 268 268 267 268 270 274 280 282 282 282 282 281 280
270 269 269 268 268 268 267 267 266 266 266 266 265 265 265 265 265 265 265 265 265 264 264 265 265 265 265 265 266 267 267 267 267 268 269 272 278 282 282 282 281 281 280
Wind_Speed
19 19 20 20 19 19 20 20 24 24 24 22 27 25 26 24 18 14 10 9 13 14 15 15 15 14 14 13 14 15 17 17 18 22 20 19 16 18 21 21 22 22 23
15 16 17 18 17 16 19 21 21 21 23 21 23 25 26 25 20 15 13 13 14 16 17 16 17 16 16 16 17 18 18 18 19 22 24 22 20 19 20 21 22 21 22
9 10 12 13 14 13 13 14 15 17 19 21 21 22 21 14 13 13 13 14 15 17 17 17 18 18 19 19 19 19 19 20 21 23 24 22 21 19 20 20 21 21 20
9 9 9 8 9 9 9 10 13 14 17 19 19 18 13 11 12 13 13 16 17 17 18 19 20 21 22 22 21 21 21 22 23 23 23 23 22 20 19 20 20 19 20
12 11 11 10 9 10 11 13 15 16 17 19 17 14 8 8 13 13 14 17 18 19 20 21 23 24 25 25 24 21 21 22 22 22 23 22 22 21 18 18 19 20 19
15 15 14 14 14 15 16 16 15 16 15 16 13 8 9 11 17 18 18 19 21 21 23 24 25 25 27 31 30 29 27 25 25 22 23 21 24 22 18 18 19 18 16
18 17 16 16 17 17 17 17 17 15 12 8 7 6 14 19 19 17 18 19 20 22 25 27 27 27 25 26 27 26 27 30 30 27 27 25 25 21 20 19 19 18 19
19 19 19 20 20 18 16 15 12 10 9 5 8 13 11 10 13 15 16 18 22 24 26 27 29 30 29 27 26 26 25 24 24 23 23 25 23 20 18 18 18 19 20
21 20 19 18 17 14 11 9 6 6 7 7 5 7 9 11 14 18 18 19 22 26 27 28 29 31 30 29 28 30 28 26 24 26 28 26 24 24 23 19 18 18 18
20 18 15 12 10 7 5 5 2 1 1 4 7 8 10 13 14 18 17 18 22 25 27 29 31 33 34 33 30 29 26 29 22 21 20 18 20 20 21 19 19 18 18
16 14 11 10 9 7 5 3 1 2 4 5 8 10 12 13 14 16 19 18 21 25 27 29 29 30 30 33 35 31 30 27 23 23 21 20 19 18 18 19 18 19 19
14 13 11 9 8 6 4 3 3 4 6 8 9 11 11 12 14 17 20 22 23 25 28 28 29 29 31 31 34 34 36 30 24 18 19 21 20 19 18 17 18 18 19
13 12 10 9 7 5 4 4 5 6 7 8 9 10 12 13 15 17 20 26 29 30 30 33 35 35 31 29 30 33 34 30 24 19 21 22 21 20 17 15 16 16 18
12 10 8 7 6 6 4 5 5 6 7 8 9 11 13 15 16 18 24 26 28 30 31 31 30 35 35 31 31 30 32 28 26 23 24 24 20 17 17 15 15 14 16
9 8 7 6 5 4 4 4 4 5 5 7 8 10 14 15 17 23 24 27 30 33 36 29 28 27 26 25 22 22 25 22 22 23 20 18 17 17 17 16 15 14 15
8 6 6 5 4 4 4 2 6 6 5 3 4 8 11 13 20 22 23 26 28 30 25 21 23 25 24 24 23 20 17 16 18 19 20 19 17 18 17 16 15 14 15
8 6 5 5 4 4 4 4 6 4 5 3 7 9 11 17 23 23 25 27 21 23 19 21 23 26 26 24 19 15 13 14 15 17 20 18 19 17 17 15 14 14 14
8 9 5 4 4 3 3 4 5 6 7 9 9 10 11 17 21 20 22 21 21 21 21 22 24 26 27 29 4 6 9 8 12 15 17 17 17 17 15 14 15 14 13
6 5 4 3 3 2 3 4 5 6 8 10 12 11 14 18 17 16 17 17 19 20 21 22 23 24 25 25 26 16 12 13 14 15 15 17 19 17 15 15 14 13 10
5 6 4 2 2 3 4 5 6 7 9 10 11 13 16 19 16 17 17 17 18 19 20 21 22 22 23 22 23 22 22 10 11 13 15 17 18 16 15 15 14 12 11
4 3 3 2 3 4 5 6 7 8 9 11 12 12 14 15 16 16 17 17 18 19 20 21 22 21 21 21 20 20 20 19 14 11 12 14 16 16 15 15 14 13 11
4 3 2 2 3 4 5 6 7 9 10 12 13 14 14 14 15 16 17 18 18 18 19 20 21 20 20 20 20 20 19 19 18 15 12 13 14 15 15 15 14 13 12
4 3 2 2 3 4 5 6 7 9 10 12 13 15 15 15 16 17 18 19 19 20 20 20 21 21 20 19 20 18 19 18 18 18 19 14 14 16 16 16 16 14 14
3 2 3 3 4 5 6 7 8 9 11 12 13 14 15 16 17 18 19 20 20 21 21 21 22 21 22 23 21 20 18 17 20 21 19 18 14 16 17 17 17 16 14
2 3 3 4 5 6 7 8 9 10 11 12 14 15 16 17 18 19 20 20 21 22 23 24 21 22 23 25 26 24 21 22 23 21 19 17 16 16 18 18 18 17 15
3 4 4 5 6 6 7 9 10 11 12 14 14 15 16 18 18 19 20 20 21 24 25 23 24 25 26 25 23 22 26 26 23 22 20 18 16 15 17 18 20 18 17
Wind_Direction
217 218 216 217 215 218 221 224 236 223 208 198 196 185 190 188 197 198 195 210 236 241 236 237 245 253 260 264 261 261 265 265 273 284 286 287 277 276 286 286 289 292 293
216 216 213 217 216 216 220 232 228 197 199 187 187 197 194 190 195 190 203 243 238 240 242 245 251 253 255 261 264 264 265 266 271 282 288 287 281 282 285 288 288 290 291
204 195 202 203 202 208 204 199 204 197 192 189 188 179 181 185 190 207 237 241 244 249 249 252 254 256 259 260 263 264 267 267 266 275 283 282 282 282 280 284 287 290 289
149 165 182 188 196 204 202 194 190 186 178 174 179 176 170 181 224 234 240 249 257 252 253 255 256 256 260 261 263 264 268 269 271 276 276 278 280 282 280 280 283 290 292
127 123 124 130 134 136 139 148 144 152 169 168 165 158 182 214 239 256 262 271 263 261 260 261 261 260 259 256 260 265 268 268 272 276 277 280 277 279 280 291 289 290 292
107 104 108 108 110 115 116 121 123 126 134 148 150 176 220 251 266 267 271 275 273 268 267 269 269 261 259 258 252 252 257 265 267 265 269 268 272 279 281 284 286 288 292
102 106 108 112 112 113 116 116 115 118 134 155 186 238 275 278 277 284 281 277 276 274 274 274 272 268 264 258 258 259 261 256 254 262 270 265 271 278 280 281 278 282 290
105 108 111 113 111 111 110 114 124 143 164 223 265 282 278 278 275 277 278 285 282 276 274 272 272 271 267 257 254 259 259 258 253 248 255 262 268 270 270 275 278 281 284
110 112 116 118 118 115 121 131 160 208 249 265 271 279 284 286 287 290 296 292 286 281 278 275 273 271 270 264 253 256 261 262 258 256 254 255 255 256 260 268 268 272 279
116 117 119 118 122 121 125 118 130 168 266 289 294 299 298 296 299 303 308 303 294 290 285 281 277 273 269 266 253 244 251 257 258 253 248 258 253 256 258 247 259 267 276
116 114 110 108 104 104 107 97 63 340 319 314 309 308 306 306 307 313 317 316 305 305 296 291 287 284 279 271 266 249 242 255 252 252 250 251 250 250 247 238 244 254 267
117 111 104 97 93 87 79 51 7 338 322 317 318 316 315 316 318 320 321 321 316 307 300 295 291 293 290 286 271 263 249 245 241 241 233 241 244 244 247 249 251 254 260
111 105 99 94 85 68 48 15 352 342 335 328 324 324 322 324 322 325 328 320 315 307 296 292 293 294 294 288 280 268 256 237 227 227 233 236 236 241 241 242 249 257 263
108 103 96 76 69 46 37 19 4 354 341 333 333 330 332 329 329 332 325 321 318 314 303 292 289 289 285 282 275 263 252 233 223 222 234 240 235 230 230 237 245 245 256
106 95 83 72 57 52 44 28 25 24 5 342 343 340 335 327 328 324 323 321 318 316 306 291 285 285 282 278 267 256 242 227 230 232 238 228 226 225 228 234 236 239 255
110 94 75 70 57 42 26 21 343 0 10 11 334 346 329 324 329 331 329 328 327 330 324 303 293 286 279 277 278 258 225 226 230 229 235 231 226 225 227 227 227 230 248
103 98 90 75 60 38 17 351 329 323 330 288 334 337 334 332 335 336 336 336 337 341 343 337 329 342 314 281 268 245 226 224 227 231 234 228 222 229 219 223 220 227 241
95 91 89 75 55 33 5 338 323 324 320 317 323 329 331 333 335 335 337 340 344 346 343 339 337 336 339 347 313 249 246 245 238 231 231 224 219 218 215 222 223 224 236
98 84 77 73 50 23 345 331 326 322 322 319 322 323 332 331 330 333 340 345 341 338 337 336 337 337 338 337 335 322 275 265 251 230 230 228 219 212 216 217 218 219 226
93 76 69 50 14 349 341 335 330 325 322 323 323 328 330 335 335 338 339 336 335 333 331 331 332 332 333 334 331 330 337 279 256 244 237 233 218 207 212 212 213 209 211
95 67 54 24 1 347 341 335 328 324 322 322 322 324 328 327 327 329 331 329 329 328 327 325 325 326 327 329 330 328 329 329 302 267 252 239 215 204 208 213 211 212 225
79 57 31 15 347 345 341 334 327 323 321 321 321 321 324 326 325 324 324 324 321 321 321 319 319 319 319 322 325 324 324 324 323 334 274 251 219 204 202 209 207 204 213
66 51 30 4 355 341 334 330 324 320 320 320 320 320 324 324 322 321 319 319 317 316 317 316 315 314 313 313 316 315 315 315 317 318 319 285 227 208 201 202 204 202 208
51 31 9 349 334 336 327 322 319 319 320 319 319 318 319 318 316 316 316 316 314 312 312 312 311 309 309 309 309 309 307 307 311 308 303 300 255 217 202 200 200 205 205
10 353 340 331 324 321 317 319 321 321 319 317 316 315 315 314 314 314 315 314 313 313 311 311 310 307 308 306 304 304 303 301 308 307 300 285 275 227 208 200 194 192 193
320 316 314 314 311 311 315 317 319 319 316 315 313 312 312 312 312 313 314 315 315 313 314 312 309 307 306 306 304 302 301 305 308 305 297 279 264 230 211 203 190 183 183